Danville, VA

9:36 PM EST on February 21, 2017 (GMT -0500)
Danville Regional

Weather History for KDAN - June, 2013

Change the Weather History Date:

Saturday, June 29, 2013

  Actual Average Record
Temperature  
Mean Temperature 77 °F 78 °F  
Max Temperature 87 °F 88 °F 104 °F (2012)
Min Temperature 67 °F 68 °F 54 °F (1955)
Degree Days  
Heating Degree Days 0 0  
Month to date heating degree days 0 0  
Since 1 June heating degree days 0 0  
Since 1 July heating degree days 3778 3811  
Cooling Degree Days 12 13  
Month to date cooling degree days 298 284  
Year to date cooling degree days 460 428  
Since 1 June cooling degree days 298 284  
Growing Degree Days 26 (Base 50)    
Moisture  
Dew Point 68 °F    
Average Humidity 74    
Maximum Humidity 97    
Minimum Humidity 51    
Precipitation  
Precipitation 0.00 in 0.12 in 2.89 in (1995)
Month to date precipitation 5.79 3.74  
Year to date precipitation 26.00 21.62  
Snow  
Snow 0.00 in - - ()
Month to date snowfall 0.0  
Since 1 June snowfall 0.0  
Since 1 July snowfall 1.7  
Snow Depth 0.00 in    
Sea Level Pressure  
Sea Level Pressure 29.64 in    
Wind  
Wind Speed 5 mph (SW)    
Max Wind Speed 12 mph    
Max Gust Speed 17 mph    
Visibility 9 miles    
Events      
T = Trace of Precipitation, MM = Missing Value Source: NWS Daily Summary

Daily Weather History Graph

Daily Weather History Graph

Search for Another Location

Airport or City:

Trip Planner

Search our weather history database for the weather conditions in past years. The results will help you decide how hot, cold, wet, or windy it might be!

Date:

Astronomy

Jun. 29, 2013 Rise Set
Actual Time 6:01 AM EDT 8:39 PM EDT
Civil Twilight 5:31 AM EDT 9:10 PM EDT
Nautical Twilight 4:53 AM EDT 9:48 PM EDT
Astronomical Twilight 4:11 AM EDT 10:30 PM EDT
Moon 12:19 AM EDT (6/29) 12:59 PM EDT (6/29)
Length of Visible Light 15h 38m
Length of Day
14h 37m
Waning Gibbous, 56% of the Moon is Illuminated
Jun 29
Waning Gibbous
Jun 30
Last Quarter
Jul 8
New
Jul 15
First Quarter
Jul 22
Full

Hourly Weather History & Observations

Time (EDT) Temp. Heat Index Dew Point Humidity Pressure Visibility Wind Dir Wind Speed Gust Speed Precip Events Conditions
12:53 AM 70.0 °F - 66.0 °F 87% 29.62 in 10.0 mi WSW 4.6 mph - 0.03 in   Mostly Cloudy
1:53 AM 70.0 °F - 64.9 °F 84% 29.60 in 10.0 mi WSW 3.5 mph - N/A   Clear
2:44 AM 68.0 °F - 64.4 °F 88% 29.63 in 10.0 mi Calm Calm - N/A   Partly Cloudy
2:53 AM 66.9 °F - 64.9 °F 93% 29.60 in 10.0 mi SW 3.5 mph - N/A   Partly Cloudy
3:53 AM 68.0 °F - 64.9 °F 90% 29.58 in 10.0 mi SSW 3.5 mph - N/A   Clear
4:41 AM 68.0 °F - 66.2 °F 94% 29.63 in 8.0 mi SW 5.8 mph - N/A   Partly Cloudy
4:53 AM 69.1 °F - 66.0 °F 90% 29.60 in 7.0 mi SW 6.9 mph - N/A   Mostly Cloudy
5:53 AM 70.0 °F - 68.0 °F 93% 29.62 in 6.0 mi SW 5.8 mph - N/A   Overcast
6:10 AM 69.8 °F - 68.0 °F 94% 29.66 in 5.0 mi SSW 4.6 mph - N/A   Overcast
6:53 AM 70.0 °F - 68.0 °F 93% 29.63 in 4.0 mi SSW 4.6 mph - N/A   Mostly Cloudy
7:14 AM 71.6 °F - 68.0 °F 88% 29.67 in 6.0 mi SW 5.8 mph - N/A   Scattered Clouds
7:31 AM 71.6 °F - 68.0 °F 88% 29.67 in 7.0 mi SW 6.9 mph - N/A   Mostly Cloudy
7:53 AM 73.0 °F - 69.1 °F 87% 29.64 in 9.0 mi WSW 6.9 mph - N/A   Mostly Cloudy
8:25 AM 73.4 °F - 69.8 °F 88% 29.68 in 10.0 mi WSW 6.9 mph - N/A   Scattered Clouds
8:53 AM 75.0 °F - 69.1 °F 82% 29.65 in 10.0 mi SW 5.8 mph - N/A   Partly Cloudy
9:53 AM 78.1 °F - 70.0 °F 76% 29.65 in 10.0 mi SW 5.8 mph - N/A   Clear
10:53 AM 82.0 °F 85.9 °F 70.0 °F 67% 29.64 in 10.0 mi Variable 6.9 mph - N/A   Clear
11:53 AM 82.9 °F 85.8 °F 68.0 °F 60% 29.64 in 10.0 mi SW 4.6 mph - N/A   Partly Cloudy
12:53 PM 84.9 °F 87.1 °F 66.0 °F 53% 29.64 in 10.0 mi SW 5.8 mph - N/A   Partly Cloudy
1:53 PM 82.9 °F 85.4 °F 66.9 °F 58% 29.64 in 10.0 mi West 4.6 mph - N/A   Overcast
2:53 PM 86.0 °F 88.8 °F 66.9 °F 53% 29.63 in 10.0 mi Variable 4.6 mph - N/A   Mostly Cloudy
3:53 PM 84.9 °F 87.6 °F 66.9 °F 55% 29.62 in 10.0 mi South 4.6 mph - N/A   Partly Cloudy
4:53 PM 87.1 °F 89.9 °F 66.9 °F 51% 29.62 in 10.0 mi South 8.1 mph - N/A   Partly Cloudy
5:53 PM 84.9 °F 88.8 °F 69.1 °F 59% 29.62 in 10.0 mi South 9.2 mph - N/A   Clear
6:53 PM 84.0 °F 87.0 °F 68.0 °F 58% 29.63 in 10.0 mi SSW 6.9 mph - N/A   Clear
7:53 PM 81.0 °F 83.8 °F 68.0 °F 65% 29.65 in 10.0 mi South 5.8 mph - N/A   Clear
8:53 PM 77.0 °F - 68.0 °F 74% 29.66 in 10.0 mi Calm Calm - N/A   Clear
9:53 PM 75.9 °F - 69.1 °F 79% 29.67 in 10.0 mi South 4.6 mph - N/A   Clear
10:53 PM 75.0 °F - 69.1 °F 82% 29.69 in 10.0 mi Calm Calm - N/A   Clear
11:53 PM 75.0 °F - 70.0 °F 84% 29.69 in 10.0 mi Calm Calm - N/A   Clear